Sign-in with your pilot id or email, or register

ICAO: LHSM Name / Country: Sármellék International Airport / Hungary
Latitude: 46.6864 Longitude: 17.1591
Total Arrivals:
Strict Standards: Non-static method AirportData::getarrflights() should not be called statically, assuming $this from incompatible context in /var/www/customers/vh-7192/web/home/phpvms/core/templates/airport_info.tpl on line 18
4
Total Departures:
Strict Standards: Non-static method AirportData::getdeptflights() should not be called statically, assuming $this from incompatible context in /var/www/customers/vh-7192/web/home/phpvms/core/templates/airport_info.tpl on line 21
6
Latest Arrival: MTA11P (LDZA-LHSM) Tibor Berces Latest Departure: MTA11P (LHSM-LHDC) Tibor Berces
Metar: LHSM 161715Z AUTO 32004KT 290V350 9999 OVC047 M02/M07 Q1021
More info

Charts for LHSM


NOTAM


Warning: file_get_contents(http://api.vateud.net/notams/LHSM.json): failed to open stream: HTTP request failed! HTTP/1.1 404 Not Found in /var/www/customers/vh-7192/web/home/phpvms/core/common/NOTAMSData.class.php on line 18

Warning: Invalid argument supplied for foreach() in /var/www/customers/vh-7192/web/home/phpvms/core/common/NOTAMSData.class.php on line 22

Sármellék International Airport